Total_Precipitation_Accumulation
0.11 0.13 0.17 0.17 0.18 0.22 0.24 0.20 0.14 0.10 0.09 0.10 0.11 0.12 0.15 0.14 0.13 0.15 0.15 0.16 0.19 0.20 0.21 0.26 0.27 0.29 0.38 0.40 0.43 0.42 0.39 0.43 0.44 0.12 0.04 0.06 0.14 0.22 0.22 0.16 0.16 0.14 0.12
0.10 0.12 0.13 0.15 0.16 0.21 0.23 0.22 0.18 0.13 0.09 0.08 0.09 0.13 0.17 0.19 0.18 0.19 0.19 0.19 0.22 0.24 0.26 0.30 0.34 0.36 0.41 0.46 0.54 0.55 0.47 0.42 0.48 0.32 0.11 0.09 0.16 0.26 0.29 0.23 0.19 0.16 0.12
0.10 0.12 0.13 0.15 0.15 0.14 0.17 0.21 0.21 0.16 0.11 0.08 0.09 0.13 0.22 0.27 0.25 0.22 0.25 0.26 0.25 0.27 0.31 0.37 0.42 0.46 0.45 0.48 0.58 0.64 0.59 0.52 0.52 0.48 0.25 0.13 0.15 0.26 0.36 0.32 0.27 0.25 0.19
0.10 0.11 0.12 0.12 0.13 0.12 0.12 0.14 0.16 0.16 0.13 0.10 0.09 0.12 0.24 0.37 0.39 0.39 0.42 0.38 0.32 0.27 0.25 0.31 0.43 0.57 0.63 0.68 0.70 0.69 0.71 0.72 0.66 0.61 0.44 0.27 0.23 0.28 0.44 0.49 0.41 0.35 0.30
0.09 0.09 0.09 0.10 0.13 0.14 0.12 0.11 0.11 0.12 0.12 0.12 0.11 0.12 0.21 0.46 0.71 0.88 0.79 0.53 0.37 0.29 0.23 0.25 0.37 0.60 0.80 1.00 1.06 0.95 0.95 1.01 0.94 0.87 0.74 0.56 0.42 0.43 0.51 0.55 0.61 0.50 0.44
0.06 0.07 0.08 0.10 0.14 0.15 0.14 0.12 0.10 0.10 0.10 0.10 0.10 0.11 0.15 0.42 0.80 1.04 0.76 0.43 0.32 0.28 0.26 0.25 0.33 0.56 0.72 0.84 0.98 0.99 1.04 1.19 1.25 1.18 1.03 0.83 0.58 0.49 0.52 0.64 0.77 0.82 0.69
0.05 0.07 0.10 0.10 0.11 0.15 0.17 0.15 0.12 0.11 0.11 0.11 0.10 0.10 0.10 0.26 0.63 0.89 0.66 0.37 0.28 0.26 0.26 0.25 0.29 0.43 0.56 0.63 0.68 0.70 0.75 0.91 1.14 1.26 1.22 0.91 0.72 0.60 0.70 0.82 0.83 0.92 0.82
0.05 0.07 0.08 0.09 0.09 0.14 0.18 0.17 0.15 0.13 0.12 0.12 0.12 0.11 0.10 0.17 0.51 0.79 0.61 0.35 0.27 0.25 0.26 0.24 0.22 0.29 0.42 0.59 0.67 0.62 0.57 0.66 0.91 1.15 1.32 1.14 0.94 0.91 1.07 1.23 1.24 1.19 1.01
0.04 0.05 0.05 0.08 0.08 0.11 0.15 0.15 0.15 0.14 0.13 0.12 0.12 0.14 0.12 0.14 0.39 0.77 0.65 0.34 0.26 0.24 0.25 0.23 0.18 0.19 0.36 0.54 0.56 0.51 0.45 0.52 0.64 0.88 1.03 1.06 1.04 1.16 1.38 1.69 1.76 1.67 1.40
0.02 0.03 0.04 0.06 0.07 0.09 0.11 0.14 0.14 0.14 0.14 0.14 0.14 0.14 0.14 0.13 0.27 0.68 0.74 0.37 0.25 0.21 0.21 0.20 0.23 0.27 0.37 0.46 0.45 0.47 0.56 0.51 0.48 0.52 0.56 0.59 0.65 0.76 1.08 1.51 1.75 1.77 1.55
0.02 0.03 0.05 0.07 0.07 0.09 0.12 0.13 0.14 0.13 0.14 0.15 0.14 0.14 0.13 0.14 0.20 0.45 0.71 0.49 0.33 0.25 0.24 0.23 0.19 0.29 0.36 0.38 0.43 0.47 0.63 0.58 0.50 0.54 0.54 0.49 0.47 0.55 0.73 1.03 1.44 1.74 1.75
0.03 0.05 0.06 0.08 0.08 0.10 0.11 0.11 0.12 0.14 0.14 0.15 0.17 0.16 0.15 0.15 0.20 0.36 0.50 0.48 0.42 0.29 0.27 0.22 0.18 0.25 0.31 0.37 0.40 0.45 0.52 0.53 0.50 0.47 0.42 0.40 0.42 0.50 0.62 0.80 1.05 1.35 1.53
0.04 0.06 0.08 0.09 0.09 0.10 0.10 0.11 0.12 0.15 0.16 0.16 0.17 0.16 0.15 0.15 0.22 0.36 0.34 0.31 0.36 0.33 0.35 0.34 0.27 0.29 0.31 0.26 0.27 0.34 0.38 0.37 0.44 0.46 0.40 0.35 0.39 0.50 0.56 0.64 0.74 0.96 1.16
0.05 0.05 0.07 0.09 0.11 0.12 0.11 0.11 0.12 0.15 0.24 0.23 0.21 0.18 0.16 0.18 0.32 0.44 0.30 0.23 0.28 0.36 0.38 0.32 0.29 0.27 0.23 0.18 0.17 0.18 0.19 0.25 0.35 0.42 0.38 0.33 0.32 0.38 0.48 0.61 0.71 0.82 1.03
0.05 0.06 0.08 0.10 0.13 0.14 0.13 0.12 0.12 0.13 0.26 0.33 0.26 0.25 0.29 0.36 0.45 0.49 0.40 0.33 0.35 0.42 0.45 0.43 0.34 0.27 0.25 0.20 0.15 0.12 0.12 0.16 0.23 0.28 0.33 0.35 0.36 0.38 0.41 0.51 0.70 0.83 0.97
0.07 0.08 0.10 0.11 0.13 0.15 0.15 0.15 0.17 0.16 0.19 0.20 0.20 0.25 0.26 0.37 0.39 0.36 0.36 0.35 0.38 0.42 0.48 0.47 0.32 0.24 0.23 0.20 0.18 0.15 0.13 0.14 0.16 0.23 0.30 0.34 0.39 0.42 0.44 0.46 0.61 0.80 0.92
0.08 0.09 0.12 0.13 0.13 0.14 0.15 0.17 0.19 0.19 0.20 0.18 0.17 0.20 0.25 0.29 0.29 0.28 0.30 0.31 0.32 0.35 0.37 0.29 0.22 0.19 0.18 0.18 0.18 0.18 0.16 0.13 0.16 0.22 0.25 0.28 0.33 0.40 0.44 0.46 0.53 0.67 0.79
0.09 0.11 0.15 0.14 0.14 0.15 0.16 0.17 0.18 0.21 0.21 0.19 0.18 0.18 0.22 0.24 0.25 0.26 0.28 0.31 0.29 0.23 0.22 0.21 0.20 0.18 0.19 0.20 0.21 0.21 0.19 0.17 0.18 0.19 0.20 0.23 0.28 0.36 0.41 0.42 0.48 0.62 0.72
0.11 0.13 0.16 0.14 0.13 0.14 0.15 0.16 0.18 0.20 0.19 0.17 0.18 0.21 0.23 0.24 0.24 0.23 0.24 0.28 0.26 0.21 0.18 0.18 0.18 0.21 0.22 0.22 0.21 0.20 0.20 0.18 0.16 0.17 0.17 0.18 0.22 0.30 0.35 0.35 0.42 0.51 0.62
0.15 0.18 0.18 0.15 0.15 0.17 0.18 0.20 0.21 0.23 0.22 0.20 0.19 0.21 0.30 0.34 0.32 0.27 0.24 0.24 0.23 0.21 0.18 0.20 0.19 0.20 0.23 0.23 0.22 0.21 0.20 0.17 0.15 0.15 0.15 0.15 0.17 0.24 0.29 0.32 0.38 0.46 0.52
0.15 0.18 0.19 0.18 0.17 0.20 0.22 0.25 0.27 0.30 0.29 0.24 0.19 0.20 0.37 0.44 0.35 0.26 0.24 0.23 0.23 0.23 0.22 0.23 0.22 0.22 0.22 0.23 0.23 0.22 0.20 0.17 0.15 0.15 0.16 0.15 0.16 0.20 0.22 0.27 0.34 0.40 0.47
0.15 0.18 0.18 0.19 0.21 0.23 0.25 0.27 0.31 0.33 0.31 0.29 0.22 0.20 0.26 0.28 0.26 0.25 0.24 0.21 0.21 0.22 0.24 0.28 0.27 0.25 0.26 0.28 0.28 0.27 0.22 0.16 0.14 0.16 0.17 0.16 0.16 0.17 0.19 0.23 0.28 0.34 0.42
0.18 0.22 0.23 0.23 0.24 0.28 0.29 0.28 0.31 0.33 0.33 0.30 0.28 0.25 0.24 0.25 0.25 0.26 0.26 0.22 0.21 0.21 0.22 0.26 0.28 0.25 0.23 0.24 0.25 0.28 0.27 0.19 0.15 0.18 0.22 0.19 0.16 0.15 0.17 0.20 0.23 0.30 0.38
0.23 0.27 0.29 0.29 0.30 0.31 0.32 0.32 0.32 0.32 0.33 0.32 0.30 0.28 0.25 0.25 0.24 0.23 0.23 0.23 0.23 0.22 0.23 0.26 0.26 0.25 0.23 0.23 0.21 0.20 0.19 0.19 0.22 0.25 0.24 0.25 0.21 0.17 0.18 0.21 0.22 0.26 0.33
0.27 0.29 0.32 0.35 0.38 0.37 0.36 0.35 0.33 0.31 0.31 0.31 0.30 0.28 0.26 0.24 0.23 0.21 0.21 0.22 0.23 0.23 0.21 0.23 0.24 0.25 0.23 0.21 0.19 0.17 0.17 0.21 0.30 0.39 0.41 0.37 0.27 0.20 0.20 0.22 0.22 0.24 0.29
0.28 0.30 0.34 0.37 0.40 0.40 0.40 0.39 0.35 0.33 0.34 0.32 0.30 0.30 0.28 0.26 0.24 0.22 0.22 0.23 0.25 0.23 0.20 0.19 0.21 0.23 0.22 0.22 0.19 0.17 0.20 0.25 0.30 0.34 0.44 0.47 0.35 0.23 0.21 0.24 0.23 0.25 0.29